Back to catalog

SCOUT G-1 DEB

AlivePO
NORAD 40216·DEBRIS·🇺🇸 United States

Launched Nov 14, 1986 from Vandenberg Space Force Base

Loading…

Next Passes (next 24 hours)

TLE

AgingSource: Space-Track

Epoch: Sep 9, 2026, 12:22 UTC

1 40216U 86088E   26252.51590952  .00002743  00000-0  18342-2 0  9992
2 40216  89.5916 156.9357 0071101 191.5474 168.4078 13.99507681636626

Track SCOUT G-1 DEB in real time with AllMySat

Download on the App Store